Location: Jetmore Oil Field
(38.1181°N, 99.9337°W)
Time: 23:18:43
(UTC+00:00)

ISS - Pass Details

Date: 29 June 2021
Orbit: 419 x 421 km, 51.6° (Epoch: 30 July)

Event Time Altitude Azimuth Distance (km) Brightness Sun altitude
Exits shadow 08:29:53 15° 97° (E) 1,247 -1.2 -23.8°
Drops below altitude 10° 08:30:50 10° 83° (E) 1,497 -0.6 -23.7°
Sets 08:33:20 0° 65° (ENE) 2,364 0.9 -23.5°
